EW5191 Weather Reports


Display with metric or nautical units.
time (UTC)temp
F
wind
direction
speed
MPH
gust
MPH
rain 1hr
in
rain 24hr
in
rain mn
in
humidity
%
barometer
mb
20260503013003 70 28 1.0 6.0 0.00 0.00 0.00 19 1010.6
20260503011630 71 51 4.0 7.0 0.00 0.00 0.00 17 1010.6
20260503010100 72 352 1.0 12.0 0.00 0.00 0.00 17 1010.7
20260503004602 74 55 2.0 9.0 0.00 0.00 0.00 16 1010.9
20260503003100 75 36 4.0 11.0 0.00 0.00 0.00 16 1010.9
20260503001558 75 35 2.0 8.0 0.00 0.00 0.00 16 1011.0
20260503000058 74 30 10.0 14.0 0.00 0.00 0.00 16 1011.1
20260502234612 73 48 7.0 13.0 0.00 0.00 0.00 16 1011.2
20260502233057 73 80 8.0 13.0 0.00 0.00 0.00 17 1011.3
20260502231550 74 48 2.0 15.0 0.00 0.00 0.00 17 1011.6
20260502230050 77 51 8.0 13.0 0.00 0.00 0.00 15 1011.6
20260502224544 75 64 4.0 11.0 0.00 0.00 0.00 16 1011.9
20260502223057 74 23 5.0 8.0 0.00 0.00 0.00 15 1012.2
20260502221540 75 327 3.0 6.0 0.00 0.00 0.00 15 1012.3
20260502220038 73 302 2.0 6.0 0.00 0.00 0.00 15 1012.6
20260502214538 73 342 3.0 8.0 0.00 0.00 0.00 15 1012.9
20260502213042 74 199 4.0 12.0 0.00 0.00 0.00 15 1013.2
20260502211534 75 174 9.0 16.0 0.00 0.00 0.00 14 1013.4
20260502210031 75 145 4.0 9.0 0.00 0.00 0.00 15 1013.8
20260502204525 74 125 4.0 9.0 0.00 0.00 0.00 16 1014.1
20260502203022 74 32 3.0 9.0 0.00 0.00 0.00 16 1014.3
20260502201533 73 339 2.0 12.0 0.00 0.00 0.00 16 1014.5
20260502200020 73 92 2.0 10.0 0.00 0.00 0.00 17 1014.9
20260502194519 72 142 1.0 9.0 0.00 0.00 0.00 17 1015.2
20260502193016 71 19 5.0 12.0 0.00 0.00 0.00 16 1015.5
20260502191514 73 11 3.0 12.0 0.00 0.00 0.00 17 1015.7
20260502190011 73 119 1.0 6.0 0.00 0.00 0.00 17 1015.9
20260502184510 71 28 5.0 11.0 0.00 0.00 0.00 18 1016.3
20260502183007 72 160 0.0 4.0 0.00 0.00 0.00 18 1016.5
20260502181504 69 274 0.0 4.0 0.00 0.00 0.00 19 1016.8
20260502163046 64 294 2.0 4.0 0.00 0.00 0.00 28 1018.3
20260502161543 63 154 1.0 3.0 0.00 0.00 0.00 26 1018.4
20260502151529 54 78 0.0 1.0 0.00 0.00 0.00 39 1019.1
20260502123009 33 259 0.0 1.0 0.00 0.00 0.00 62 1019.3
20260502121507 34 327 0.0 1.0 0.00 0.00 0.00 59 1019.3
20260502114504 36 125 0.0 0.0 0.00 0.00 0.00 57 1019.2
20260502113004 37 125 0.0 1.0 0.00 0.00 0.00 55 1019.2
20260502111503 35 125 0.0 1.0 0.00 0.00 0.00 57 1019.3
20260502110003 35 107 0.0 0.0 0.00 0.00 0.00 58 1019.4
20260502104501 34 107 0.0 1.0 0.00 0.00 0.00 60 1019.4
20260502103100 33 106 0.0 0.0 0.00 0.00 0.00 59 1019.4
20260502101611 33 224 0.0 1.0 0.00 0.00 0.00 59 1019.3
20260502070053 43 220 1.0 3.0 0.00 0.00 0.00 43 1019.9
20260502064530 44 153 3.0 6.0 0.00 0.00 0.00 41 1019.9
20260502063032 44 128 3.0 4.0 0.00 0.00 0.00 41 1019.9
20260502061526 46 117 1.0 3.0 0.00 0.00 0.00 38 1019.9
20260502060035 46 147 2.0 3.0 0.00 0.00 0.00 37 1020.0
20260502054537 45 151 3.0 4.0 0.00 0.00 0.00 39 1019.9
20260502053022 47 111 0.0 4.0 0.00 0.00 0.00 36 1019.9
20260502051522 47 158 2.0 4.0 0.00 0.00 0.00 35 1019.9
20260502050023 46 207 1.0 2.0 0.00 0.00 0.00 36 1019.9
20260502044521 49 53 0.0 1.0 0.00 0.00 0.00 35 1019.8
20260502043023 49 145 0.0 2.0 0.00 0.00 0.00 33 1019.7
20260502041531 49 220 0.0 2.0 0.00 0.00 0.00 34 1019.7
20260502040042 50 103 0.0 1.0 0.00 0.00 0.00 36 1019.5
20260502034519 52 143 0.0 1.0 0.00 0.00 0.00 29 1019.2
20260502033027 54 157 4.0 7.0 0.00 0.00 0.00 28 1019.2
20260502031521 57 125 0.0 2.0 0.00 0.00 0.00 24 1018.9
20260502030021 59 118 1.0 3.0 0.00 0.00 0.00 22 1018.8
20260502024521 60 128 0.0 1.0 0.00 0.00 0.00 22 1018.6
20260502023029 57 141 2.0 3.0 0.00 0.00 0.00 23 1018.4
20260502021521 61 5 0.0 0.0 0.00 0.00 0.00 21 1018.3
20260502020017 64 360 0.0 1.0 0.00 0.00 0.00 20 1018.3
20260502014518 65 360 0.0 1.0 0.00 0.00 0.00 21 1018.3